Stanley, ID

4:16 PM MDT on May 24, 2017 (GMT -0600)
Stanley

Weather History for KSNT - November, 2011

Change the Weather History Date:

Wednesday, November 16, 2011

  Actual Average Record
Temperature  
Mean Temperature 10 °F 23 °F  
Max Temperature 28 °F 35 °F 64 °F (1923)
Min Temperature -9 °F 12 °F -18 °F (2014)
Degree Days  
Heating Degree Days 55 42  
Month to date heating degree days 670 601  
Since 1 July heating degree days 2386 2465  
Cooling Degree Days 0 0  
Month to date cooling degree days 0 0  
Year to date cooling degree days 3 3  
Moisture  
Dew Point 4 °F    
Average Humidity 73    
Maximum Humidity 95    
Minimum Humidity 50    
Precipitation  
Precipitation 0.00 in 0.07 in 0.80 in (1920)
Month to date precipitation 0.50 1.35  
Year to date precipitation 16.94 15.03  
Sea Level Pressure  
Sea Level Pressure 30.34 in    
Wind  
Wind Speed 1 mph (SE)    
Max Wind Speed 15 mph    
Max Gust Speed 22 mph    
T = Trace of Precipitation, MM = Missing Value Source: NWS Daily Summary

Daily Weather History Graph

Daily Weather History Graph

Search for Another Location

Airport or City:

Trip Planner

Search our weather history database for the weather conditions in past years. The results will help you decide how hot, cold, wet, or windy it might be!

Date:

Astronomy

Nov. 16, 2011 Rise Set
Actual Time 7:36 AM MST 5:12 PM MST
Civil Twilight 7:04 AM MST 5:43 PM MST
Nautical Twilight 6:29 AM MST 6:18 PM MST
Astronomical Twilight 5:55 AM MST 6:52 PM MST
Moon 10:32 PM MST (11/16) 12:13 PM MST (11/16)
Length of Visible Light 10h 38m
Length of Day
9h 35m
Waning Gibbous, 69% of the Moon is Illuminated
Nov 16
Waning Gibbous
Nov 18
Last Quarter
Nov 24
New
Dec 2
First Quarter
Dec 10
Full

Hourly Weather History & Observations

Time (MST) Temp. Windchill Dew Point Humidity Pressure Visibility Wind Dir Wind Speed Gust Speed Precip Events Conditions
12:51 AM -0.9 °F - -2.9 °F 91% 30.31 in - Calm Calm - N/A   Unknown
1:51 AM -2.0 °F - -6.0 °F 83% 30.32 in - Calm Calm - N/A   Unknown
2:51 AM -4.0 °F - -8.0 °F 83% 30.34 in - Calm Calm - N/A   Unknown
3:51 AM -4.0 °F - -7.1 °F 87% 30.36 in - Calm Calm - N/A   Unknown
4:51 AM -4.0 °F - -9.0 °F 79% 30.41 in - Calm Calm - N/A   Unknown
5:51 AM -5.1 °F - -9.9 °F 80% 30.40 in - Calm Calm - N/A   Unknown
6:51 AM -8.0 °F - -11.9 °F 83% 30.44 in - Calm Calm - N/A   Unknown
7:51 AM -5.1 °F - -9.0 °F 83% 30.49 in - Calm Calm - N/A   Unknown
8:51 AM -2.0 °F - -6.0 °F 83% 30.49 in - Calm Calm - N/A   Unknown
9:51 AM 1.0 °F - -0.9 °F 91% 30.49 in - Calm Calm - N/A   Unknown
10:51 AM 6.1 °F - 1.9 °F 83% 30.47 in - Calm Calm - N/A   Unknown
11:51 AM 12.9 °F - 5.0 °F 71% 30.42 in - Calm Calm - N/A   Unknown
12:51 PM 17.1 °F 10.0 °F 6.1 °F 62% 30.39 in - North 4.6 mph - N/A   Unknown
1:51 PM 19.9 °F - 6.1 °F 55% 30.34 in - Calm Calm - N/A   Unknown
2:51 PM 21.9 °F - 8.1 °F 55% 30.31 in - Calm Calm - N/A   Unknown
3:51 PM 23.0 °F - 7.0 °F 50% 30.29 in - Calm Calm - N/A   Unknown
4:51 PM 21.9 °F - 9.0 °F 58% 30.28 in - Calm Calm - N/A   Unknown
5:51 PM 21.9 °F - 9.0 °F 58% 30.28 in - Calm Calm - N/A   Unknown
6:51 PM 25.0 °F 17.1 °F 14.0 °F 63% 30.29 in - South 6.9 mph - N/A   Unknown
7:51 PM 25.0 °F 16.3 °F 19.9 °F 81% 30.27 in - SSE 8.1 mph - N/A   Unknown
8:51 PM 25.0 °F 16.3 °F 21.0 °F 85% 30.24 in - SE 8.1 mph - N/A   Unknown
9:51 PM 27.0 °F - 21.0 °F 78% 30.23 in - Calm Calm - N/A   Unknown
10:51 PM 25.0 °F - 21.0 °F 85% 30.19 in - Calm Calm - N/A   Unknown
11:51 PM 25.0 °F - 21.9 °F 88% 30.13 in - Calm Calm - N/A   Unknown